Total_Precipitation_Accumulation
0.00 0.00 0.00 0.00 0.00 0.00 0.00 0.00 0.00 0.00 0.00 0.00 0.01 0.02 0.03 0.03 0.03 0.04 0.06 0.09 0.14 0.23 0.32 0.52 0.64 0.83 0.96 1.04 1.15 1.15 1.18 1.24 1.31 1.37 1.34 1.38 1.52 1.72 1.95 2.14 2.33 2.46 2.46 2.37
0.00 0.00 0.00 0.00 0.00 0.00 0.00 0.00 0.00 0.01 0.01 0.01 0.02 0.05 0.07 0.07 0.07 0.10 0.15 0.13 0.16 0.28 0.40 0.62 0.80 1.10 1.26 1.30 1.34 1.41 1.48 1.73 2.06 2.29 2.57 2.78 2.90 2.85 2.94 3.06 3.14 3.05 2.94 2.83
0.00 0.00 0.00 0.00 0.00 0.00 0.00 0.00 0.01 0.01 0.02 0.03 0.04 0.12 0.15 0.15 0.16 0.16 0.18 0.21 0.28 0.41 0.54 0.68 0.85 1.14 1.31 1.43 1.52 1.61 1.84 2.46 3.15 3.39 3.57 3.89 4.10 3.89 3.75 3.59 3.50 3.41 3.32 3.23
0.00 0.00 0.00 0.00 0.00 0.00 0.00 0.00 0.00 0.01 0.02 0.05 0.05 0.16 0.25 0.24 0.25 0.20 0.22 0.27 0.35 0.47 0.60 0.74 0.90 1.14 1.31 1.59 1.73 1.89 2.35 3.06 3.70 4.08 4.51 4.90 4.96 4.92 4.83 4.39 3.88 3.47 3.15 2.90
0.00 0.00 0.00 0.00 0.00 0.00 0.00 0.00 0.00 0.01 0.01 0.03 0.06 0.18 0.37 0.42 0.42 0.36 0.33 0.33 0.35 0.40 0.56 0.68 0.85 1.07 1.18 1.40 1.75 2.03 2.56 3.18 3.87 4.53 5.10 5.41 5.53 5.41 5.00 4.24 3.50 3.09 2.83 2.53
0.00 0.00 0.00 0.00 0.00 0.00 0.00 0.00 0.00 0.01 0.02 0.05 0.05 0.15 0.43 0.68 0.72 0.63 0.51 0.50 0.46 0.38 0.45 0.60 0.80 0.90 1.13 1.39 1.63 1.97 2.33 2.89 3.53 4.08 4.55 4.65 4.74 4.69 4.26 3.76 3.27 2.91 2.47 1.99
0.00 0.00 0.00 0.00 0.00 0.00 0.00 0.01 0.03 0.05 0.06 0.09 0.07 0.19 0.53 0.83 0.80 0.62 0.55 0.55 0.52 0.39 0.40 0.62 0.85 0.80 1.02 1.35 1.69 2.00 2.33 2.70 3.11 3.58 3.97 4.15 4.18 3.99 3.63 3.21 2.79 2.33 1.90 1.52
0.02 0.01 0.01 0.00 0.00 0.01 0.00 0.01 0.05 0.08 0.08 0.12 0.17 0.35 0.58 0.71 0.66 0.53 0.50 0.48 0.44 0.42 0.45 0.58 0.75 0.82 1.04 1.24 1.53 1.86 2.15 2.42 2.58 2.72 2.97 3.08 3.10 2.97 2.73 2.33 1.93 1.63 1.38 1.14
0.07 0.05 0.02 0.01 0.00 0.00 0.01 0.01 0.02 0.03 0.03 0.12 0.34 0.49 0.64 0.62 0.52 0.48 0.44 0.42 0.45 0.46 0.49 0.56 0.68 0.80 1.02 1.28 1.52 1.76 1.89 2.01 2.13 2.18 2.18 2.17 2.15 2.03 1.86 1.65 1.42 1.19 0.96 0.77
0.07 0.12 0.04 0.01 0.01 0.01 0.01 0.01 0.02 0.03 0.06 0.15 0.39 0.65 0.83 0.85 0.77 0.61 0.47 0.47 0.48 0.50 0.52 0.55 0.63 0.71 0.80 0.91 1.15 1.33 1.41 1.49 1.53 1.52 1.53 1.51 1.44 1.35 1.25 1.13 0.99 0.81 0.67 0.55
0.08 0.13 0.07 0.02 0.01 0.01 0.01 0.02 0.03 0.04 0.04 0.14 0.37 0.84 1.09 1.22 1.16 0.89 0.65 0.57 0.57 0.58 0.56 0.55 0.58 0.59 0.63 0.67 0.80 0.95 1.04 1.08 1.14 1.17 1.13 1.05 1.03 0.98 0.94 0.90 0.85 0.72 0.60 0.50
0.09 0.14 0.13 0.05 0.04 0.02 0.02 0.02 0.03 0.06 0.08 0.13 0.37 1.08 1.53 1.58 1.36 1.01 0.80 0.71 0.70 0.69 0.64 0.59 0.55 0.50 0.51 0.54 0.58 0.64 0.69 0.69 0.74 0.77 0.76 0.76 0.77 0.77 0.77 0.72 0.65 0.52 0.43 0.38
0.06 0.13 0.27 0.24 0.17 0.07 0.04 0.03 0.03 0.04 0.08 0.15 0.39 1.27 1.90 1.80 1.54 1.26 1.05 1.00 0.99 0.92 0.78 0.63 0.51 0.42 0.42 0.47 0.49 0.51 0.50 0.48 0.50 0.50 0.49 0.53 0.54 0.52 0.50 0.47 0.45 0.41 0.34 0.29
0.05 0.14 0.34 0.58 0.41 0.21 0.12 0.07 0.05 0.07 0.15 0.25 0.43 0.81 1.11 1.21 1.28 1.32 1.43 1.50 1.36 1.09 0.89 0.70 0.58 0.49 0.47 0.49 0.47 0.45 0.43 0.38 0.38 0.39 0.40 0.42 0.42 0.38 0.35 0.31 0.28 0.26 0.23 0.21
0.09 0.20 0.20 0.22 0.21 0.21 0.19 0.15 0.12 0.13 0.17 0.36 0.61 0.84 1.08 1.18 1.25 1.32 1.49 1.44 1.27 1.11 0.96 0.80 0.70 0.66 0.59 0.50 0.45 0.44 0.45 0.42 0.39 0.37 0.36 0.36 0.33 0.29 0.26 0.23 0.21 0.19 0.17 0.14
0.08 0.16 0.17 0.20 0.19 0.22 0.23 0.21 0.21 0.24 0.31 0.48 0.73 1.05 1.35 1.37 1.33 1.36 1.45 1.40 1.24 1.05 0.92 0.83 0.79 0.78 0.68 0.57 0.47 0.43 0.42 0.41 0.38 0.35 0.32 0.30 0.28 0.25 0.21 0.18 0.15 0.13 0.10 0.08
0.09 0.17 0.25 0.27 0.21 0.30 0.46 0.37 0.35 0.38 0.42 0.58 0.83 1.05 1.21 1.27 1.27 1.33 1.42 1.47 1.37 1.16 1.04 1.01 1.03 1.01 0.87 0.71 0.60 0.53 0.49 0.43 0.39 0.36 0.34 0.32 0.27 0.22 0.17 0.12 0.10 0.09 0.07 0.06
0.10 0.16 0.21 0.23 0.32 0.55 0.57 0.30 0.34 0.39 0.42 0.51 0.61 0.78 0.95 1.05 1.11 1.24 1.39 1.47 1.43 1.35 1.31 1.30 1.26 1.13 1.00 0.86 0.74 0.63 0.54 0.49 0.45 0.40 0.33 0.25 0.18 0.13 0.10 0.09 0.09 0.08 0.07 0.06
0.05 0.12 0.18 0.25 0.42 0.59 0.52 0.29 0.24 0.40 0.49 0.47 0.51 0.54 0.58 0.62 0.71 1.01 1.19 1.26 1.29 1.32 1.30 1.20 1.12 1.04 0.95 0.82 0.71 0.60 0.51 0.44 0.38 0.31 0.23 0.16 0.12 0.11 0.09 0.09 0.09 0.09 0.08 0.07
0.03 0.07 0.18 0.25 0.42 0.59 0.55 0.22 0.13 0.32 0.64 0.54 0.49 0.50 0.53 0.60 0.66 0.74 0.83 0.86 0.94 0.99 1.00 0.97 0.92 0.86 0.78 0.69 0.57 0.47 0.38 0.31 0.25 0.18 0.15 0.11 0.09 0.09 0.09 0.08 0.08 0.07 0.06 0.07
0.12 0.15 0.22 0.31 0.44 0.53 0.25 0.11 0.21 0.56 0.79 0.64 0.57 0.55 0.59 0.66 0.59 0.47 0.50 0.59 0.69 0.78 0.82 0.80 0.77 0.74 0.61 0.46 0.38 0.32 0.26 0.21 0.14 0.09 0.08 0.08 0.07 0.07 0.07 0.09 0.08 0.08 0.09 0.10
0.18 0.24 0.28 0.36 0.49 0.53 0.17 0.12 0.33 0.47 0.44 0.47 0.48 0.48 0.46 0.40 0.32 0.33 0.35 0.40 0.46 0.56 0.66 0.63 0.57 0.48 0.37 0.29 0.27 0.25 0.19 0.12 0.08 0.08 0.09 0.08 0.07 0.05 0.06 0.09 0.10 0.10 0.11 0.12
0.09 0.13 0.21 0.32 0.43 0.34 0.13 0.14 0.20 0.22 0.29 0.31 0.30 0.31 0.25 0.22 0.23 0.24 0.27 0.32 0.36 0.39 0.45 0.45 0.40 0.33 0.29 0.25 0.23 0.21 0.15 0.11 0.10 0.11 0.11 0.09 0.06 0.06 0.07 0.08 0.10 0.10 0.11 0.11
0.08 0.03 0.03 0.10 0.20 0.15 0.11 0.09 0.12 0.14 0.19 0.20 0.24 0.30 0.23 0.19 0.19 0.20 0.23 0.27 0.31 0.31 0.30 0.30 0.28 0.26 0.25 0.20 0.18 0.15 0.10 0.10 0.13 0.15 0.12 0.10 0.10 0.11 0.09 0.07 0.06 0.07 0.09 0.08
0.05 0.03 0.03 0.07 0.12 0.13 0.14 0.10 0.07 0.09 0.11 0.14 0.23 0.32 0.29 0.21 0.20 0.18 0.20 0.23 0.25 0.27 0.28 0.28 0.26 0.22 0.17 0.14 0.12 0.09 0.09 0.12 0.16 0.13 0.10 0.12 0.13 0.12 0.11 0.09 0.05 0.04 0.04 0.02
0.02 0.03 0.06 0.11 0.12 0.14 0.15 0.11 0.08 0.13 0.18 0.21 0.28 0.36 0.29 0.23 0.20 0.18 0.19 0.19 0.21 0.22 0.24 0.24 0.20 0.16 0.12 0.10 0.09 0.08 0.08 0.09 0.13 0.13 0.11 0.10 0.11 0.10 0.10 0.11 0.10 0.04 0.01 0.01